Карточка аэропорта UNWW

Внимание!
Информация на этой странице в стадии наполнения.
Если вы не увидели какой-то информации, или заметили неточность - пожалуйста сообщите нам!
Спасибо!
Команда RU-STAFF
Название аэропортаСпиченково
Название аэропорта (англ.)Spichenkovo
Превышение1023 ft. (311.8 m.)
Координаты53°48.714', 86°52.704'
Высота перехода800m
Эшелон переходаFL050
Коды ответчика5270-5277
Зона ОрВДНовосибирск РПИ (UNNT)
Данные METARUNWW 140830Z 23009MPS CAVOK 18/M02 Q1008 R19/09//55 NOSIG RMK QFE729
Проноз погоды (TAF)UNWW 140800Z 1409/1509 21009G16MPS 8000 -SHRA BKN040CB TEMPO 1409/1412 23012G20MPS BECMG 1412/1413 19005G10MPS TEMPO 1413/1421 21008G15MPS TEMPO 1421/1504 1500 SHRA BKN016CB BECMG 1504/1506 24008G16MPS
NOTAMshow/hide NOTAM
AWOS   TABLE

Информация о ВПП

ВПП Длина ВПП (м.) Покрытие Курс ВПП Частота ILS
012679Цементобетон14 
192679Цементобетон194111.1

Диспетчерские позиции

Позывной Наименование органа УВД Частота
UNWW_APPНовокузнецк-Подход118.6
UNWW_TWRНовокузнецк-Старт121.2



Спутниковое изображение